User: anonymous   Login
Location: Oshawa
(43.9000°N, 78.8670°W)
Time: 10:53:39
(UTC-04:00)
Language:

CZ-4C R/B - Orbit

View from above orbital plane
View from above orbital plane
View from above satellite
View from above satellite

Ground track
Ground track

The orbit data is extracted from the following two-line orbital elements,

1 32290U 07055B   16243.19036258  .00004191  00000-0  12398-3 0  9994
2 32290  97.5272 338.0921 0071628  88.8178 272.1269 15.32939162487212
Epoch (UTC): 30 August 2016 04:34:07
Eccentricity: 0.0071628
inclination: 97.5272°
perigee height: 418 km
apogee height: 516 km
right ascension of ascending node: 338.0921°
argument of perigee: 88.8178°
revolutions per day: 15.32939162
mean anomaly at epoch: 272.1269°
orbit number at epoch: 48721

The dashed part of the orbit path shows where the satellite is in the earth's shadow,  

DLR